Location: Chuathbaluk
(61.5726°N, 159.2454°W)
Time: 17:40:56
(UTC+00:00)

ITAMSAT 1 - Pass Details

Date: 25 January 2021
Orbit: 784 x 796 km, 98.9° (Epoch: 05 March)

Event Time Altitude Azimuth Distance (km) Brightness Sun altitude
Rises 04:08:49 0° 170° (S) 3,273 11.0 -11.9°
Reaches altitude 10° 04:11:09 10° 174° (S) 2,347 10.3 -12.2°
Maximum altitude 04:16:18 62° 256° (WSW) 884 8.2 -12.7°
Drops below altitude 10° 04:21:27 10° 337° (NNW) 2,359 10.2 -13.3°
Sets 04:23:49 0° 341° (NNW) 3,291 10.9 -13.6°
